Regional Weather Roundup
Issued by NWS

Home | Current Version | Previous Version | Graphics & Text | Print | Product List | Glossary On
Versions: 1 2 3 4 5 6 7 8 9 10 11 12 13 14 15 16 17 18 19 20 21 22 23 24 25 26 27
000
ASUS45 KCYS 220710
RWRWY

WYOMING REGIONAL WEATHER ROUNDUP
NATIONAL WEATHER SERVICE CHEYENNE WY
100 AM MDT TUE MAY 22 2018

NOTE:  "FAIR" INDICATES FEW OR NO CLOUDS BELOW 12,000 FEET
WITH NO SIGNIFICANT WEATHER AND/OR OBSTRUCTIONS TO VISIBILITY.

WYZ001-220800-
YELLOWSTONE NATIONAL PARK

CITY           SKY/WX    TMP DP  RH WIND       PRES   REMARKS
LK YELLOWSTONE   N/A     35  31  85 CALM      30.15S
W YELLOWSTONE  NOT AVBL

$$
WYZ002>013-054>058-071-098>099-220800-
NORTHERN WYOMING

CITY           SKY/WX    TMP DP  RH WIND       PRES   REMARKS
JACKSON        FAIR      43  39  86 CALM      30.08S
CODY           FAIR      52  45  77 N5        30.04S
GREYBULL       FAIR      54  49  83 CALM      29.95R
WORLAND        FAIR      53  49  86 N3        29.96R
SHERIDAN       FAIR      54  50  86 W7        29.98R
BUFFALO        FAIR      54  47  77 NW12      30.00R
GILLETTE       FAIR      58  46  64 SW8       29.95S
NEWCASTLE      FAIR      54  43  66 NE8       29.99F

$$
WYZ014>020-022>026-101>103-220800-
CENTRAL WYOMING

CITY           SKY/WX    TMP DP  RH WIND       PRES   REMARKS
BIG PINEY      FAIR      44  38  79 NW3       30.07S
PINEDALE       FAIR      41  37  87 NW5       30.08S
DUBOIS         FAIR      41  34  75 W7        30.10S
LANDER         FAIR      51  42  71 W13       30.01R
RIVERTON       FAIR      52  44  74 W7        30.01S
CASPER         FAIR      50  47  89 NE6       30.00F
DOUGLAS        FAIR      52  49  89 SE5       30.00F

$$
WYZ021-027>030-104>119-220800-
SOUTHERN WYOMING

CITY           SKY/WX    TMP DP  RH WIND       PRES   REMARKS
EVANSTON       FAIR      50  41  71 N10       30.05S
KEMMERER       FAIR      43  36  75 N12       30.08S
FORT BRIDGER   FAIR      53  36  52 CALM      30.09R
ROCK SPRINGS   FAIR      52  39  61 NE6       30.04R
DIXON          FAIR      49  32  51 SE5       30.03R
RAWLINS        FAIR      55  41  59 NE9       30.03S
SARATOGA       FAIR      50  37  62 S3        30.06R
LARAMIE        FAIR      47  42  83 W9        30.07F
CHEYENNE       FAIR      48  47  96 W6        30.03S
TORRINGTON     FAIR      54  53  97 N10       29.95S
PINE BLUFFS    FAIR      52  50  93 CALM      29.99S

$$




USA.gov is the U.S. government's official web portal to all federal, state and local government web resources and services.